CW4086 Weather Reports


time (UTC)temp
F
wind
direction
speed
knots
gust
knots
rain 1hr
in
rain 24hr
in
rain mn
in
humidity
%
barometer
mb
20260508220604 87 258 2.6 7.0 0.00 0.00 0.00 24 1013.2
20260508220104 87 291 3.5 7.0 0.00 0.00 0.00 25 1013.2
20260508215104 86 248 2.6 6.1 0.00 0.00 0.00 25 1013.3
20260508214604 86 287 3.5 7.0 0.00 0.00 0.00 25 1013.3
20260508214104 86 272 3.5 7.0 0.00 0.00 0.00 29 1013.4
20260508213604 86 281 2.6 8.7 0.00 0.00 0.00 29 1013.4
20260508213104 86 261 4.3 8.7 0.00 0.00 0.00 27 1013.6
20260508212105 86 277 4.3 8.7 0.00 0.00 0.00 28 1013.7
20260508211607 87 308 3.5 6.1 0.00 0.00 0.00 28 1013.7
20260508211104 86 312 1.7 6.1 0.00 0.00 0.00 28 1013.7
20260508210604 85 297 1.7 6.1 0.00 0.00 0.00 30 1013.8
20260508205103 85 276 4.3 6.1 0.00 0.00 0.00 31 1013.8
20260508204105 85 238 3.5 6.1 0.00 0.00 0.00 31 1014.0
20260508203104 84 231 2.6 6.1 0.00 0.00 0.00 33 1014.1
20260508202604 83 285 2.6 6.1 0.00 0.00 0.00 32 1014.2
20260508202104 83 280 2.6 6.1 0.00 0.00 0.00 32 1014.3
20260508201606 83 295 2.6 6.1 0.00 0.00 0.00 34 1014.3
20260508201105 83 254 2.6 6.1 0.00 0.00 0.00 31 1014.3
20260508200604 83 292 2.6 6.1 0.00 0.00 0.00 34 1014.3
20260508195604 82 290 4.3 7.8 0.00 0.00 0.00 34 1014.4
20260508195104 81 271 1.7 7.8 0.00 0.00 0.00 35 1014.5
20260508194604 81 296 2.6 7.0 0.00 0.00 0.00 36 1014.6
20260508193604 81 264 3.5 6.1 0.00 0.00 0.00 32 1014.7
20260508192604 80 294 3.5 7.8 0.00 0.00 0.00 32 1014.9
20260508192105 80 296 3.5 7.0 0.00 0.00 0.00 32 1014.9
20260508191604 80 274 2.6 6.1 0.00 0.00 0.00 35 1014.8
20260508191106 79 282 2.6 6.1 0.00 0.00 0.00 39 1014.9
20260508190605 79 294 2.6 6.1 0.00 0.00 0.00 41 1014.9
20260508190105 78 284 2.6 6.1 0.00 0.00 0.00 43 1014.8
20260508185104 77 269 3.5 7.8 0.00 0.00 0.00 45 1014.8
20260508184604 77 319 4.3 7.8 0.00 0.00 0.00 47 1014.8
20260508184104 76 260 4.3 7.8 0.00 0.00 0.00 46 1014.9
20260508183605 76 304 4.3 7.8 0.00 0.00 0.00 47 1014.9
20260508183104 76 238 4.3 7.0 0.00 0.00 0.00 48 1014.9
20260508181606 75 301 3.5 6.1 0.00 0.00 0.00 49 1014.9
20260508181104 74 294 2.6 7.0 0.00 0.00 0.00 48 1015.0
20260508180604 74 276 4.3 7.0 0.00 0.00 0.00 49 1015.0
20260508180104 74 297 3.5 6.1 0.00 0.00 0.00 50 1015.0
20260508175104 73 291 3.5 5.2 0.00 0.00 0.00 50 1014.9
20260508174604 72 286 2.6 5.2 0.00 0.00 0.00 51 1014.9
20260508174104 72 292 1.7 4.3 0.00 0.00 0.00 52 1015.0
20260508173604 71 292 1.7 4.3 0.00 0.00 0.00 52 1015.0
20260508173104 70 300 1.7 2.6 0.00 0.00 0.00 54 1015.1
20260508172604 69 300 0.0 2.6 0.00 0.00 0.00 55 1015.1
20260508172104 68 300 1.7 2.6 0.00 0.00 0.00 57 1015.1
20260508171605 68 301 1.7 2.6 0.00 0.00 0.00 59 1015.2
20260508171104 67 300 0.9 4.3 0.00 0.00 0.00 62 1015.1
20260508170604 66 300 1.7 4.3 0.00 0.00 0.00 64 1015.1
20260508170104 66 301 0.9 2.6 0.00 0.00 0.00 66 1015.1
20260508165104 64 300 0.9 2.6 0.00 0.00 0.00 71 1015.3
20260508164104 63 300 1.7 2.6 0.00 0.00 0.00 75 1015.4
20260508163603 63 301 1.7 2.6 0.00 0.00 0.00 77 1015.4
20260508163105 62 300 0.9 2.6 0.00 0.00 0.00 77 1015.4
20260508162605 62 301 1.7 2.6 0.00 0.00 0.00 78 1015.5
20260508162104 61 301 1.7 2.6 0.00 0.00 0.00 79 1015.5
20260508161606 61 300 1.7 2.6 0.00 0.00 0.00 81 1015.5
20260508160104 60 306 0.9 5.2 0.00 0.00 0.00 83 1015.4
20260508155604 59 309 1.7 5.2 0.00 0.00 0.00 84 1015.5
20260508155104 59 297 1.7 5.2 0.00 0.00 0.00 85 1015.4
20260508154604 59 305 2.6 4.3 0.00 0.00 0.00 85 1015.4
20260508154104 59 291 2.6 4.3 0.00 0.00 0.00 86 1015.4
20260508153604 59 286 1.7 4.3 0.00 0.00 0.00 87 1015.3
20260508153104 58 283 1.7 2.6 0.00 0.00 0.00 88 1015.3
20260508152605 58 279 2.6 4.3 0.00 0.00 0.00 88 1015.3
20260508151604 58 285 2.6 4.3 0.00 0.00 0.00 90 1015.4
20260508151107 58 316 0.9 2.6 0.00 0.00 0.00 91 1015.4
20260508150104 57 351 0.0 1.7 0.00 0.00 0.00 91 1015.3
20260508145604 56 351 0.0 1.7 0.00 0.00 0.00 91 1015.3
20260508145104 57 18 0.0 1.7 0.00 0.00 0.00 91 1015.4
20260508144604 57 30 0.0 0.9 0.00 0.00 0.00 92 1015.4
20260508143605 55 31 0.0 0.9 0.00 0.00 0.00 93 1015.5
20260508142604 54 30 0.0 0.9 0.00 0.00 0.00 93 1015.6
20260508142104 54 30 0.0 0.0 0.00 0.00 0.00 92 1015.7
20260508141607 53 30 0.0 0.0 0.00 0.00 0.00 92 1015.7
20260508141104 53 30 0.0 0.0 0.00 0.00 0.00 92 1015.7
20260508140604 53 30 0.0 0.9 0.00 0.00 0.00 92 1015.6
20260508140105 52 30 0.0 0.9 0.00 0.00 0.00 91 1015.5
20260508135604 52 30 0.0 0.0 0.00 0.00 0.00 91 1015.6
20260508135104 52 30 0.0 0.0 0.00 0.00 0.00 91 1015.5
20260508134104 52 30 0.0 0.9 0.00 0.00 0.00 90 1015.4
20260508133604 51 30 0.0 0.9 0.00 0.00 0.00 89 1015.5
20260508132604 51 30 0.0 0.9 0.00 0.00 0.00 88 1015.4
20260508132106 51 30 0.0 0.9 0.00 0.00 0.00 88 1015.3
20260508131607 52 263 0.0 0.9 0.00 0.00 0.00 88 1015.3
20260508131104 52 253 0.0 0.9 0.00 0.00 0.00 88 1015.2
20260508130605 52 253 0.0 0.9 0.00 0.00 0.00 87 1015.0
20260508130104 52 253 0.0 0.9 0.00 0.00 0.00 87 1015.0
20260508125104 52 285 0.0 0.9 0.00 0.00 0.00 87 1015.0
20260508124604 52 300 0.0 0.0 0.00 0.00 0.00 87 1015.0
20260508124104 52 300 0.0 0.0 0.00 0.00 0.00 86 1014.9
20260508123605 53 300 0.0 0.0 0.00 0.00 0.00 86 1014.9
20260508123104 53 300 0.0 0.9 0.00 0.00 0.00 86 1014.9
20260508121104 54 301 0.0 0.9 0.00 0.00 0.00 85 1014.7
20260508120605 55 301 0.0 0.9 0.00 0.00 0.00 85 1014.6
20260508120105 55 301 0.0 0.9 0.00 0.00 0.00 85 1014.5
20260508115104 55 298 0.0 0.9 0.00 0.00 0.00 85 1014.4
20260508114104 56 298 0.0 0.9 0.00 0.00 0.00 86 1014.3
20260508113604 56 298 0.0 0.9 0.00 0.00 0.00 86 1014.3
20260508113104 56 298 0.0 0.9 0.00 0.00 0.00 86 1014.4
20260508112104 56 298 0.0 0.9 0.00 0.00 0.00 86 1014.4
20260508111606 55 298 0.0 0.9 0.00 0.00 0.00 85 1014.3
20260508111105 55 298 0.0 0.0 0.00 0.00 0.00 85 1014.3
20260508110605 55 298 0.0 0.0 0.00 0.00 0.00 85 1014.3
20260508110104 55 298 0.0 0.0 0.00 0.00 0.00 85 1014.3
20260508105604 55 298 0.0 0.9 0.00 0.00 0.00 85 1014.3
20260508104104 56 298 0.0 0.0 0.00 0.00 0.00 84 1014.7
20260508103105 56 298 0.0 0.9 0.00 0.00 0.00 84 1014.8
20260508102606 57 298 0.0 0.9 0.00 0.00 0.00 84 1014.9
20260508102104 57 298 0.0 0.9 0.00 0.00 0.00 84 1014.9
20260508101607 57 298 0.0 0.9 0.00 0.00 0.00 84 1014.9
20260508101104 57 298 0.0 0.9 0.00 0.00 0.00 83 1014.9
20260508100605 57 298 0.0 0.9 0.00 0.00 0.00 83 1014.9
20260508100104 57 298 0.0 0.0 0.00 0.00 0.00 82 1014.9
20260508095604 57 298 0.0 0.0 0.00 0.00 0.00 82 1014.9
20260508095104 57 298 0.0 0.0 0.00 0.00 0.00 82 1014.9
20260508094605 57 298 0.0 0.0 0.00 0.00 0.00 82 1014.8
20260508093605 57 298 0.0 0.0 0.00 0.00 0.00 82 1014.7
20260508093104 57 298 0.0 0.9 0.00 0.00 0.00 81 1014.7
20260508092605 58 298 0.0 0.9 0.00 0.00 0.00 81 1014.8
20260508092104 58 298 0.0 0.9 0.00 0.00 0.00 81 1014.8
20260508091607 59 311 0.0 0.9 0.00 0.00 0.00 81 1014.8
20260508091104 59 312 0.0 0.9 0.00 0.00 0.00 81 1014.7
20260508090605 59 311 0.0 0.9 0.00 0.00 0.00 81 1014.8
20260508090104 59 310 0.0 0.9 0.00 0.00 0.00 81 1014.8
20260508085605 58 310 0.0 0.0 0.00 0.00 0.00 80 1014.9
20260508085104 59 310 0.0 0.0 0.00 0.00 0.00 80 1014.9
20260508084604 59 310 0.0 0.0 0.00 0.00 0.00 80 1015.0
20260508084104 59 310 0.0 0.9 0.00 0.00 0.00 80 1015.1
20260508083104 59 310 0.0 0.0 0.00 0.00 0.00 79 1015.1
20260508082604 59 310 0.0 0.0 0.00 0.00 0.00 79 1015.3
20260508082104 59 310 0.0 0.0 0.00 0.00 0.00 78 1015.4
20260508081104 60 310 0.0 0.9 0.00 0.00 0.00 78 1015.4
20260508080604 60 310 0.0 0.0 0.00 0.00 0.00 78 1015.5
20260508080104 60 310 0.0 0.0 0.00 0.00 0.00 77 1015.6
20260508075604 60 310 0.0 0.0 0.00 0.00 0.00 77 1015.5
20260508075104 60 310 0.0 0.0 0.00 0.00 0.00 77 1015.6
20260508074104 61 310 0.0 0.9 0.00 0.00 0.00 77 1015.8
20260508073104 60 309 0.0 0.0 0.00 0.00 0.00 76 1015.7
20260508072105 61 310 0.0 0.0 0.00 0.00 0.00 75 1015.7
20260508071606 61 309 0.0 0.9 0.00 0.00 0.00 74 1015.7
20260508071104 61 309 0.0 0.9 0.00 0.00 0.00 74 1015.7
20260508070604 61 310 0.0 0.9 0.00 0.00 0.00 73 1015.6
20260508070105 61 310 0.0 0.0 0.00 0.00 0.00 73 1015.6
20260508065604 62 310 0.0 0.0 0.00 0.00 0.00 73 1015.7
20260508065103 62 310 0.0 0.9 0.00 0.00 0.00 73 1015.7
20260508064604 62 310 0.0 0.9 0.00 0.00 0.00 73 1015.7
20260508064104 62 310 0.0 0.0 0.00 0.00 0.00 73 1015.7
20260508063604 62 310 0.0 0.0 0.00 0.00 0.00 73 1015.7
20260508063104 62 310 0.0 0.0 0.00 0.00 0.00 73 1015.6
20260508062104 62 310 0.0 0.0 0.00 0.00 0.00 73 1015.5
20260508061606 62 310 0.0 0.0 0.00 0.00 0.00 73 1015.6
20260508061103 63 310 0.0 0.0 0.00 0.00 0.00 72 1015.6
20260508060603 63 310 0.0 0.0 0.00 0.00 0.00 71 1015.6
20260508060104 63 310 0.0 0.0 0.00 0.00 0.00 71 1015.6
20260508055604 63 310 0.0 0.0 0.00 0.00 0.00 71 1015.6
20260508054604 64 310 0.0 0.0 0.00 0.00 0.00 70 1015.6
20260508053604 64 310 0.0 0.9 0.00 0.00 0.00 70 1015.7
20260508053104 64 309 0.0 0.9 0.00 0.00 0.00 69 1015.8
20260508052604 64 306 0.0 1.7 0.00 0.00 0.00 69 1015.8
20260508051607 65 313 0.0 0.9 0.00 0.00 0.00 69 1015.7
20260508051104 65 300 0.0 0.9 0.00 0.00 0.00 69 1015.5
20260508050603 65 300 0.0 0.0 0.00 0.00 0.00 69 1015.6
20260508050104 65 300 0.0 0.0 0.00 0.00 0.00 68 1015.4
20260508045604 66 300 0.0 0.9 0.00 0.00 0.00 68 1015.4
20260508044604 66 300 0.0 0.9 0.00 0.00 0.00 67 1015.4
20260508043604 67 300 0.0 0.9 0.00 0.00 0.00 65 1015.4
20260508043105 67 300 0.0 0.9 0.00 0.00 0.00 64 1015.4
20260508042603 67 300 0.0 0.9 0.00 0.00 0.00 63 1015.3
20260508042104 68 300 0.0 1.7 0.00 0.00 0.00 62 1015.1
20260508041606 68 300 0.0 1.7 0.00 0.00 0.00 61 1014.9
20260508041105 68 303 0.9 1.7 0.00 0.00 0.00 61 1014.9
20260508040104 69 292 0.0 1.7 0.00 0.00 0.00 61 1014.8
20260508035606 69 291 0.0 0.9 0.00 0.00 0.00 61 1014.8
20260508035104 69 291 0.0 0.0 0.00 0.00 0.00 61 1014.8
20260508034604 69 291 0.0 0.0 0.00 0.00 0.00 60 1014.7
20260508034104 69 291 0.0 0.9 0.00 0.00 0.00 60 1014.7
20260508033604 69 291 0.0 1.7 0.00 0.00 0.00 60 1014.6
20260508033104 69 290 0.0 1.7 0.00 0.00 0.00 60 1014.5
20260508032604 70 289 0.0 2.6 0.00 0.00 0.00 59 1014.6
20260508031604 70 289 1.7 2.6 0.00 0.00 0.00 58 1014.4
20260508031106 71 289 1.7 2.6 0.00 0.00 0.00 57 1014.3
20260508030604 71 289 1.7 2.6 0.00 0.00 0.00 56 1014.3
20260508030104 72 288 1.7 2.6 0.00 0.00 0.00 55 1014.2
20260508025603 72 288 1.7 4.3 0.00 0.00 0.00 55 1014.2
20260508025104 73 288 1.7 4.3 0.00 0.00 0.00 54 1014.2
20260508024604 73 288 1.7 2.6 0.00 0.00 0.00 54 1014.2
20260508024104 74 288 1.7 2.6 0.00 0.00 0.00 52 1014.1
20260508023604 75 288 2.6 2.6 0.00 0.00 0.00 51 1014.1
20260508023104 75 287 0.9 2.6 0.00 0.00 0.00 50 1013.9
20260508022605 76 287 1.7 2.6 0.00 0.00 0.00 48 1013.9
20260508022104 76 287 0.9 4.3 0.00 0.00 0.00 48 1013.8
20260508021607 76 287 1.7 4.3 0.00 0.00 0.00 47 1013.8
20260508021105 77 280 1.7 5.2 0.00 0.00 0.00 47 1013.7
20260508020604 77 279 2.6 5.2 0.00 0.00 0.00 46 1013.7
20260508015604 78 273 3.5 6.1 0.00 0.00 0.00 45 1013.7
20260508015104 78 282 5.2 6.1 0.00 0.00 0.00 44 1013.7
20260508014603 79 266 4.3 6.1 0.00 0.00 0.00 43 1013.7
20260508014104 79 266 4.3 7.0 0.00 0.00 0.00 42 1013.7
20260508013604 79 261 5.2 7.8 0.00 0.00 0.00 42 1013.7
20260508013104 80 262 4.3 7.8 0.00 0.00 0.00 41 1013.7
20260508012605 80 286 5.2 7.8 0.00 0.00 0.00 41 1013.6
20260508012105 81 269 4.3 7.8 0.00 0.00 0.00 39 1013.6
20260508011606 81 285 4.3 7.0 0.00 0.00 0.00 39 1013.5
20260508010604 82 293 5.2 7.0 0.00 0.00 0.00 37 1013.4
20260508010105 82 290 5.2 10.4 0.00 0.00 0.00 35 1013.5
20260508005604 82 266 5.2 10.4 0.00 0.00 0.00 38 1013.4
20260508005104 82 276 4.3 10.4 0.00 0.00 0.00 37 1013.4
20260508004605 82 269 4.3 10.4 0.00 0.00 0.00 37 1013.3
20260508004103 83 285 4.3 8.7 0.00 0.00 0.00 37 1013.2
20260508003604 83 277 5.2 8.7 0.00 0.00 0.00 37 1013.2
20260508003104 83 288 5.2 8.7 0.00 0.00 0.00 37 1013.2
20260508002604 83 259 5.2 8.7 0.00 0.00 0.00 37 1013.2
20260508001606 83 268 4.3 10.4 0.00 0.00 0.00 37 1013.2
20260508001104 83 274 6.1 10.4 0.00 0.00 0.00 36 1013.2
20260508000604 83 289 5.2 10.4 0.00 0.00 0.00 37 1013.2
20260508000105 83 312 6.1 10.4 0.00 0.00 0.00 37 1013.3
20260507235604 83 263 6.1 10.4 0.00 0.00 0.00 37 1013.3
20260507235104 84 266 6.1 12.2 0.00 0.00 0.00 36 1013.2
20260507234605 84 284 6.1 12.2 0.00 0.00 0.00 35 1013.2
20260507234104 84 275 6.1 12.2 0.00 0.00 0.00 35 1013.2
20260507233604 84 261 5.2 10.4 0.00 0.00 0.00 35 1013.1
20260507233104 85 282 5.2 10.4 0.00 0.00 0.00 34 1013.1
20260507232604 85 290 5.2 10.4 0.00 0.00 0.00 35 1013.0
20260507232103 85 298 5.2 8.7 0.00 0.00 0.00 35 1012.9
20260507231104 85 282 6.1 11.3 0.00 0.00 0.00 34 1013.1
20260507230604 85 270 7.8 11.3 0.00 0.00 0.00 34 1013.0
20260507230104 85 279 7.0 10.4 0.00 0.00 0.00 33 1012.9
20260507225604 86 263 5.2 10.4 0.00 0.00 0.00 32 1012.8
20260507225104 85 302 5.2 13.0 0.00 0.00 0.00 33 1012.9
20260507224104 86 270 6.1 13.0 0.00 0.00 0.00 31 1012.9
20260507223604 86 290 6.1 13.0 0.00 0.00 0.00 31 1012.9
20260507223104 86 304 7.0 10.4 0.00 0.00 0.00 31 1012.9
20260507222605 86 287 6.1 13.9 0.00 0.00 0.00 32 1012.9
20260507222104 86 328 7.0 13.9 0.00 0.00 0.00 32 1013.1
20260507221607 87 269 5.2 10.4 0.00 0.00 0.00 31 1012.9
20260507221104 87 345 5.2 10.4 0.00 0.00 0.00 30 1013.1